User: anonymous   Login
Location: Banff
(51.1667°N, 115.5667°W)
Time: 17:30:47
(UTC+00:00)
Language:

Explorer 7 - Orbit

View from above orbital plane
View from above orbital plane
View from above satellite
View from above satellite

Ground track
Ground track

The orbit data is extracted from the following two-line orbital elements,

1 00022U 59009A   21162.56429331  .00000182  00000-0  36303-4 0  9992
2 00022  50.2831 216.5967 0138579 191.2613 168.5223 14.95592532524101
Epoch (UTC): 11 June 2021 13:32:34
Eccentricity: 0.0138579
inclination: 50.2831°
perigee height: 484 km
apogee height: 677 km
right ascension of ascending node: 216.5967°
argument of perigee: 191.2613°
revolutions per day: 14.95592532
mean anomaly at epoch: 168.5223°
orbit number at epoch: 52410

The dashed part of the orbit path shows where the satellite is in the earth's shadow,  

DLR